DateTimeUTC,F1_A11,F1_S11,BsB_S11,BsG_S11,BsR_S11,BbsB_S11,BbsG_S11,BbsR_S11,BaB_A11,BaG_A11,BaR_A11,Tu_S11,T_S11,Uu_S11,U_S11,P_S11,T1_A11
2021-05-20T09:00:00Z,00000200,21000000,,,,,,,0000.29,-000.48,-000.33,16.1,23.4,,00.0,0672.1,30.8
2021-05-20T09:01:00Z,00000200,21000000,,,,,,,-000.28,0000.19,0000.38,16.1,23.4,,00.0,0672.1,30.8
2021-05-20T09:02:00Z,00000200,21000000,,,,,,,0000.08,-000.17,-000.11,16.0,23.4,,00.0,0672.1,30.8
2021-05-20T09:03:00Z,00000200,61000000,,,,,,,0000.87,0000.64,0000.49,16.0,23.4,,00.0,0672.1,30.8
2021-05-20T09:04:00Z,00000200,41000000,0003.47,0002.32,0001.20,0000.23,0000.38,0000.22,0000.79,0000.80,0000.63,16.1,23.1,00.1,00.0,0673.1,30.8
2021-05-20T09:05:00Z,00000200,01000000,0002.94,0002.22,0001.22,0000.41,0000.53,0000.16,0000.63,0000.39,0000.33,16.2,23.1,00.1,00.0,0673.1,30.8
2021-05-20T09:06:00Z,00000200,01000000,0002.41,0001.80,0000.92,0001.00,0000.60,0000.24,0000.62,0000.90,0000.57,16.2,23.0,00.1,00.1,0673.1,30.8
2021-05-20T09:07:00Z,00000200,01000000,0003.04,0001.99,0001.22,0000.32,0000.63,0000.38,0001.06,0000.84,0000.21,16.2,23.0,00.1,00.1,0673.1,30.8
2021-05-20T09:08:00Z,00000200,01000000,0002.71,0001.91,0001.37,0000.01,0000.48,0000.39,0000.90,0000.73,0000.85,16.1,23.0,00.1,00.1,0673.1,30.8
2021-05-20T09:09:00Z,00000200,01000000,0002.34,0001.99,0001.35,0000.38,0000.70,0000.26,0000.70,0001.02,0000.59,16.1,23.0,00.1,00.1,0673.1,30.8
2021-05-20T09:10:00Z,00000200,01000000,0002.57,0001.93,0000.98,0000.46,0000.51,0000.35,0000.64,0000.49,0000.60,16.1,23.0,00.2,00.1,0673.1,30.8
2021-05-20T09:11:00Z,00000200,01000000,0002.73,0001.94,0000.99,0000.89,0000.12,0000.24,0001.08,0000.85,0000.79,16.1,22.9,00.2,00.1,0673.1,30.8
2021-05-20T09:12:00Z,00000200,01000000,0002.41,0002.08,0001.40,0000.74,0000.52,0000.33,0000.74,0001.21,0000.59,16.1,22.9,00.3,00.2,0673.1,30.8
2021-05-20T09:13:00Z,00000200,01000000,0003.24,0001.79,0001.44,0000.92,0000.73,0000.25,0000.90,0000.26,0000.50,16.1,22.9,00.4,00.3,0673.1,30.8
2021-05-20T09:14:00Z,00000200,01000000,0002.54,0001.61,0001.15,0000.46,0000.40,0000.16,0000.63,0000.65,0000.09,16.1,22.9,00.3,00.2,0673.1,30.8
2021-05-20T09:15:00Z,00000200,01000000,0002.97,0001.95,0001.26,0000.15,0000.31,0000.15,0000.44,0000.45,0000.59,16.1,22.9,00.3,00.2,0673.1,30.8
2021-05-20T09:16:00Z,00000200,01000000,0002.69,0001.95,0000.95,0000.41,0000.73,0000.23,0000.91,0000.40,0000.38,16.0,22.9,00.3,00.2,0673.1,30.8
2021-05-20T09:17:00Z,00000200,01000000,0003.01,0001.92,0001.26,0000.82,0000.48,0000.11,0000.83,0001.15,0000.50,16.1,22.9,00.4,00.2,0673.1,30.8
2021-05-20T09:18:00Z,00000200,01000000,0002.64,0001.65,0001.25,0000.38,0000.56,0000.05,0001.11,0000.68,0000.87,16.1,22.8,00.3,00.2,0673.1,30.8
2021-05-20T09:19:00Z,00000200,01000000,0003.08,0001.62,0001.03,0000.16,0000.35,0000.17,0000.59,0000.75,0000.52,16.1,22.8,00.4,00.2,0673.1,30.8
2021-05-20T09:20:00Z,00000200,01000000,0003.05,0002.06,0001.20,0000.96,0000.47,0000.17,0000.58,0000.66,0000.28,16.1,22.9,00.3,00.2,0673.1,30.8
2021-05-20T09:21:00Z,00000200,01000000,0002.62,0001.94,0001.29,0000.38,0000.57,0000.68,0000.67,0000.20,0000.49,16.1,22.8,00.3,00.2,0673.1,30.8
2021-05-20T09:22:00Z,00000200,01000000,0002.64,0002.05,0001.17,0000.13,0000.42,0000.29,0000.86,0000.79,0000.43,16.1,22.8,00.3,00.2,0673.1,30.8
2021-05-20T09:23:00Z,00000200,01000000,0002.56,0001.76,0001.24,-000.06,0000.77,0000.44,0000.91,0000.73,0000.40,16.1,22.8,00.4,00.3,0673.0,30.8
2021-05-20T09:24:00Z,00000200,01000000,0002.82,0001.76,0001.04,0000.78,0000.68,0000.31,0000.41,0000.54,0000.49,16.1,22.8,00.4,00.3,0673.0,30.8
2021-05-20T09:25:00Z,00000200,01000000,0003.23,0001.79,0000.87,0000.26,0000.58,0000.28,0000.72,0000.35,0000.66,16.1,22.8,00.3,00.2,0673.0,30.8
2021-05-20T09:26:00Z,00000200,01000000,0002.66,0001.93,0001.30,0000.80,0000.39,0000.19,0000.88,0001.33,0000.32,16.1,22.8,00.3,00.2,0673.0,30.8
2021-05-20T09:27:00Z,00000200,01000000,0003.25,0001.98,0001.37,0000.54,0000.61,0000.19,0000.66,0000.05,0000.75,16.0,22.8,00.3,00.2,0673.0,30.8
2021-05-20T09:28:00Z,00000200,01000000,0003.20,0001.89,0000.95,0000.25,0000.44,0000.30,0000.67,0000.87,0000.38,16.0,22.8,00.3,00.2,0673.0,30.8
2021-05-20T09:29:00Z,00000200,01010000,0002.43,0002.07,0001.14,0000.12,0000.54,0000.20,0000.61,0000.50,0000.46,16.1,22.8,00.4,00.3,0673.0,30.8
2021-05-20T09:30:00Z,00000200,01000000,0002.22,0001.45,0001.07,0000.12,0000.25,0000.23,0001.07,0001.01,0000.52,16.0,22.7,00.4,00.3,0673.0,30.8
2021-05-20T09:31:00Z,00000200,01000000,0002.30,0001.93,0001.11,0000.93,0000.36,0000.28,0000.61,0000.61,0000.36,16.0,22.7,00.4,00.3,0673.0,30.8
2021-05-20T09:32:00Z,00000200,01000000,0002.74,0001.99,0001.10,0000.48,0000.74,0000.18,0000.88,0000.62,0000.80,16.0,22.7,00.5,00.3,0673.0,30.8
2021-05-20T09:33:00Z,00000200,01000000,0002.85,0001.60,0001.19,0000.87,0000.57,0000.23,0001.04,0001.17,0000.84,16.0,22.7,00.5,00.4,0673.0,30.8
2021-05-20T09:34:00Z,00000200,01000000,0002.62,0001.82,0000.94,0001.08,0000.39,0000.28,0000.95,0000.86,0000.29,16.1,22.7,00.6,00.4,0673.0,30.8
2021-05-20T09:35:00Z,00000200,01000000,0002.80,0001.64,0000.97,0000.18,0000.24,0000.33,0000.77,0000.55,0000.94,16.1,22.8,00.6,00.4,0673.0,30.8
2021-05-20T09:36:00Z,00000200,01000000,0002.79,0002.00,0001.19,0000.19,0000.42,0000.27,0000.24,0000.50,0000.52,16.2,22.8,00.6,00.4,0673.0,30.8
2021-05-20T09:37:00Z,00000200,01000000,0002.42,0002.02,0001.06,0000.61,0000.50,0000.29,0000.71,0000.52,0000.23,16.2,22.8,00.7,00.4,0673.0,30.9
2021-05-20T09:38:00Z,00000200,01000000,0002.66,0001.91,0001.02,0000.16,0000.39,0000.55,0000.93,0000.60,0000.14,16.3,22.8,00.5,00.4,0673.0,30.9
2021-05-20T09:39:00Z,00000200,01000000,0002.96,0001.78,0001.21,0000.86,0000.55,0000.17,0000.64,0000.85,0000.67,16.2,22.8,00.6,00.4,0672.9,30.9
2021-05-20T09:40:00Z,00000200,01000000,0002.68,0001.81,0001.11,0000.55,0000.46,0000.05,0000.75,0000.59,0000.49,16.2,22.8,00.7,00.5,0672.9,30.9
2021-05-20T09:41:00Z,00000200,01000000,0002.81,0001.97,0001.11,0000.38,0000.43,0000.25,0000.51,0000.40,0000.46,16.2,22.8,00.7,00.4,0672.9,30.8
2021-05-20T09:42:00Z,00000200,01000000,0002.69,0001.45,0001.28,0000.20,0000.74,0000.45,0000.37,0000.91,0000.18,16.2,22.8,00.7,00.5,0672.9,30.8
2021-05-20T09:43:00Z,00000200,01000000,0002.27,0001.78,0001.17,0000.82,0000.51,0000.15,0001.17,0000.63,0000.84,16.2,22.8,00.7,00.4,0672.9,30.8
2021-05-20T09:44:00Z,00000200,01000000,0002.92,0001.84,0000.96,0000.41,0000.60,0000.21,0000.45,0000.65,0000.42,16.2,22.8,00.8,00.5,0672.9,30.8
2021-05-20T09:45:00Z,00000200,01000000,0002.45,0001.88,0001.30,0000.40,0000.34,0000.40,0000.98,0000.38,0000.30,16.2,22.8,00.8,00.5,0672.9,30.8
2021-05-20T09:46:00Z,00000200,01000000,0002.56,0001.93,0001.11,0000.73,0000.31,0000.21,0000.66,0000.86,0000.95,16.2,22.8,00.8,00.5,0672.9,30.8
2021-05-20T09:47:00Z,00000200,01000000,0002.69,0001.60,0000.90,0000.30,0000.27,0000.13,0000.44,0000.26,-000.06,16.2,22.8,00.8,00.5,0672.9,30.8
2021-05-20T09:48:00Z,00000200,01000000,0002.29,0001.77,0000.77,0000.53,0000.25,0000.15,0000.61,0000.69,0000.37,16.2,22.8,00.6,00.4,0672.9,30.8
2021-05-20T09:49:00Z,00000200,01000000,0002.62,0002.06,0000.97,0000.38,0000.40,0000.16,0000.84,0000.68,0000.83,16.2,22.7,00.8,00.5,0672.9,30.8
2021-05-20T09:50:00Z,00000200,01000000,0002.59,0001.80,0000.61,0000.46,0000.49,0000.44,0000.70,0000.44,0000.24,16.2,22.7,00.7,00.4,0672.8,30.8
2021-05-20T09:51:00Z,00000200,01000000,0003.31,0001.53,0001.36,0000.52,0000.58,0000.28,0000.65,0000.52,0000.53,16.2,22.7,00.7,00.5,0672.8,30.8
2021-05-20T09:52:00Z,00000200,01000000,0002.33,0001.74,0000.83,0000.81,0000.20,0000.37,0000.60,0000.54,0000.39,16.2,22.7,00.7,00.5,0672.8,30.8
2021-05-20T09:53:00Z,00000200,01000000,0002.30,0001.87,0001.08,0000.73,0000.35,0000.27,0000.45,0000.93,0000.56,16.1,22.7,00.7,00.5,0672.9,30.8
2021-05-20T09:54:00Z,00000200,01000000,0002.98,0001.98,0000.97,0000.33,0000.60,0000.38,0000.75,0000.40,0000.22,16.1,22.7,00.7,00.5,0672.8,30.8
2021-05-20T09:55:00Z,00000200,01000000,0002.63,0001.77,0000.86,0000.81,0000.51,0000.12,0000.60,0000.71,0000.54,16.1,22.7,00.8,00.5,0672.8,30.8
2021-05-20T09:56:00Z,00000200,01000000,0002.70,0001.58,0000.93,0000.49,0000.43,-000.17,0000.91,0000.78,0000.45,16.1,22.7,00.7,00.5,0672.8,30.8
2021-05-20T09:57:00Z,00000200,41000000,,,,,,,-000.31,-000.29,-000.06,16.1,22.7,01.2,00.8,0672.9,30.8
2021-05-20T09:58:00Z,00000200,61000000,,,,,,,0000.29,-000.31,-000.10,15.8,22.9,00.4,00.2,0671.8,30.8
2021-05-20T09:59:00Z,00000200,21000000,,,,,,,-000.29,-000.16,-000.70,15.8,23.0,00.3,00.2,0671.8,30.8
